Time,TemperatureF,DewpointF,PressureIn,WindDirection,WindDirectionDegrees,WindSpeedMPH,WindSpeedGustMPH,Humidity,HourlyPrecipIn,Conditions,Clouds,dailyrainin,SoftwareType,DateUTC
2013-03-02 00:00:00,41.4,30.5,30.03,NE,35,0.0,0.0,65,0.00,,SKC,0.00,VWS V13.01,2013-03-02 06:00:00,
2013-03-02 00:05:00,41.2,30.3,30.03,ENE,61,0.0,0.0,65,0.00,,SKC,0.00,VWS V13.01,2013-03-02 06:05:00,
2013-03-02 00:10:00,41.2,30.3,30.03,NNW,329,3.1,3.1,65,0.00,,SKC,0.00,VWS V13.01,2013-03-02 06:10:00,
2013-03-02 00:15:00,41.2,30.3,30.03,NE,44,0.0,3.6,65,0.00,,SKC,0.00,VWS V13.01,2013-03-02 06:15:00,
2013-03-02 00:20:00,41.0,30.1,30.03,NE,37,0.0,0.0,65,0.00,,SKC,0.00,VWS V13.01,2013-03-02 06:20:00,
2013-03-02 00:25:00,41.0,30.1,30.03,NNE,30,3.1,6.3,65,0.00,,SKC,0.00,VWS V13.01,2013-03-02 06:25:00,
2013-03-02 00:30:00,40.8,30.0,30.03,NE,53,0.0,0.0,65,0.00,,SKC,0.00,VWS V13.01,2013-03-02 06:30:00,
2013-03-02 00:35:00,40.6,29.8,30.03,ENE,60,0.0,0.0,65,0.00,,SKC,0.00,VWS V13.01,2013-03-02 06:35:00,
2013-03-02 00:40:00,40.5,29.6,30.03,NNE,14,0.0,0.0,65,0.00,,SKC,0.00,VWS V13.01,2013-03-02 06:40:00,
2013-03-02 00:45:00,40.5,29.6,30.03,North,4,5.4,5.4,65,0.00,,SKC,0.00,VWS V13.01,2013-03-02 06:45:00,
2013-03-02 00:50:00,40.3,29.5,30.03,North,11,0.0,2.2,65,0.00,,SKC,0.00,VWS V13.01,2013-03-02 06:50:00,
2013-03-02 00:55:00,40.1,29.3,30.03,NNE,29,0.0,2.2,65,0.00,,SKC,0.00,VWS V13.01,2013-03-02 06:55:00,
2013-03-02 01:00:00,39.9,29.1,30.03,North,354,0.0,2.2,65,0.00,,SKC,0.00,VWS V13.01,2013-03-02 07:00:00,
2013-03-02 01:05:00,39.9,29.1,30.03,NNE,21,0.0,0.0,65,0.00,,SKC,0.00,VWS V13.01,2013-03-02 07:05:00,
2013-03-02 01:10:00,39.7,29.0,30.03,NNE,20,0.0,0.0,65,0.00,,SKC,0.00,VWS V13.01,2013-03-02 07:10:00,
2013-03-02 01:15:00,39.6,28.8,30.03,NNE,24,0.0,0.0,65,0.00,,SKC,0.00,VWS V13.01,2013-03-02 07:15:00,
2013-03-02 01:20:00,39.2,28.4,30.03,NNE,29,0.0,0.0,65,0.00,,SKC,0.00,VWS V13.01,2013-03-02 07:20:00,
2013-03-02 01:25:00,39.2,28.4,30.03,NNE,29,0.0,0.0,65,0.00,,SKC,0.00,VWS V13.01,2013-03-02 07:25:00,
2013-03-02 01:30:00,38.8,29.2,30.03,NNE,29,0.0,0.0,68,0.00,,SKC,0.00,VWS V13.01,2013-03-02 07:30:00,
2013-03-02 01:35:00,38.7,29.0,30.03,NNE,29,0.0,0.0,68,0.00,,SKC,0.00,VWS V13.01,2013-03-02 07:35:00,
2013-03-02 01:40:00,38.5,28.9,30.03,NNE,29,0.0,0.0,68,0.00,,SKC,0.00,VWS V13.01,2013-03-02 07:40:00,
2013-03-02 01:45:00,38.5,29.6,30.03,NNE,29,0.0,0.0,70,0.00,,SKC,0.00,VWS V13.01,2013-03-02 07:45:00,
2013-03-02 01:50:00,38.3,29.4,30.03,NNE,29,0.0,0.0,70,0.00,,SKC,0.00,VWS V13.01,2013-03-02 07:50:00,
2013-03-02 01:55:00,38.1,29.2,30.03,NNE,29,0.0,0.0,70,0.00,,SKC,0.00,VWS V13.01,2013-03-02 07:55:00,
2013-03-02 02:00:00,37.9,29.0,30.03,NNE,29,0.0,0.0,70,0.00,,SKC,0.00,VWS V13.01,2013-03-02 08:00:00,
2013-03-02 02:05:00,37.4,28.5,30.03,NNE,29,0.0,0.0,70,0.00,,SKC,0.00,VWS V13.01,2013-03-02 08:05:00,
2013-03-02 02:10:00,37.2,28.7,30.03,NNE,29,0.0,0.0,71,0.00,,SKC,0.00,VWS V13.01,2013-03-02 08:10:00,
2013-03-02 02:15:00,37.2,29.7,30.00,NNE,29,0.0,0.0,74,0.00,,SKC,0.00,VWS V13.01,2013-03-02 08:15:00,
2013-03-02 02:20:00,37.2,29.7,30.00,NNE,29,0.0,0.0,74,0.00,,SKC,0.00,VWS V13.01,2013-03-02 08:20:00,
2013-03-02 02:25:00,37.2,29.7,30.00,NNE,29,0.0,0.0,74,0.00,,SKC,0.00,VWS V13.01,2013-03-02 08:25:00,
2013-03-02 02:30:00,37.0,29.5,30.00,NNE,29,0.0,0.0,74,0.00,,SKC,0.00,VWS V13.01,2013-03-02 08:30:00,
2013-03-02 02:35:00,37.0,29.5,30.00,NNE,29,0.0,0.0,74,0.00,,SKC,0.00,VWS V13.01,2013-03-02 08:35:00,
2013-03-02 02:40:00,36.9,29.7,30.00,NNE,29,0.0,0.0,75,0.00,,SKC,0.00,VWS V13.01,2013-03-02 08:40:00,
2013-03-02 02:45:00,36.9,29.7,30.00,NNE,29,0.0,0.0,75,0.00,,SKC,0.00,VWS V13.01,2013-03-02 08:45:00,
2013-03-02 02:50:00,36.7,29.5,30.00,NNE,29,0.0,0.0,75,0.00,,SKC,0.00,VWS V13.01,2013-03-02 08:50:00,
2013-03-02 02:55:00,36.5,29.7,30.00,NNE,29,0.0,0.0,76,0.00,,SKC,0.00,VWS V13.01,2013-03-02 08:55:00,
2013-03-02 03:00:00,36.3,29.5,30.00,NNE,29,0.0,0.0,76,0.00,,SKC,0.00,VWS V13.01,2013-03-02 09:00:00,
2013-03-02 03:05:00,36.3,29.5,30.00,NNE,15,0.0,0.0,76,0.00,,SKC,0.00,VWS V13.01,2013-03-02 09:05:00,
2013-03-02 03:10:00,36.3,29.5,30.00,NNE,15,0.0,0.0,76,0.00,,SKC,0.00,VWS V13.01,2013-03-02 09:10:00,
2013-03-02 03:15:00,36.3,29.5,30.00,NNE,15,0.0,0.0,76,0.00,,SKC,0.00,VWS V13.01,2013-03-02 09:15:00,
2013-03-02 03:20:00,36.1,29.3,30.00,North,3,0.0,0.0,76,0.00,,SKC,0.00,VWS V13.01,2013-03-02 09:20:00,
2013-03-02 03:25:00,36.1,29.3,30.00,North,3,0.0,0.0,76,0.00,,SKC,0.00,VWS V13.01,2013-03-02 09:25:00,
2013-03-02 03:30:00,36.1,29.0,30.00,NNW,348,0.0,0.0,75,0.00,,SKC,0.00,VWS V13.01,2013-03-02 09:30:00,
2013-03-02 03:35:00,36.0,29.1,30.00,NNE,13,0.0,0.0,76,0.00,,SKC,0.00,VWS V13.01,2013-03-02 09:35:00,
2013-03-02 03:40:00,36.0,29.1,30.00,NNE,13,0.0,0.0,76,0.00,,SKC,0.00,VWS V13.01,2013-03-02 09:40:00,
2013-03-02 03:45:00,35.8,28.6,30.00,NNE,13,0.0,0.0,75,0.00,,SKC,0.00,VWS V13.01,2013-03-02 09:45:00,
2013-03-02 03:50:00,35.4,28.3,30.00,NNE,13,0.0,0.0,75,0.00,,SKC,0.00,VWS V13.01,2013-03-02 09:50:00,
2013-03-02 03:55:00,35.4,28.9,30.00,North,4,0.0,0.0,77,0.00,,SKC,0.00,VWS V13.01,2013-03-02 09:55:00,
2013-03-02 04:00:00,35.4,29.2,30.00,North,4,0.0,0.0,78,0.00,,SKC,0.00,VWS V13.01,2013-03-02 10:00:00,
2013-03-02 04:05:00,35.4,28.9,30.00,North,4,0.0,0.0,77,0.00,,SKC,0.00,VWS V13.01,2013-03-02 10:05:00,
2013-03-02 04:10:00,35.2,28.8,30.00,North,4,0.0,0.0,77,0.00,,SKC,0.00,VWS V13.01,2013-03-02 10:10:00,
2013-03-02 04:15:00,35.4,29.2,30.00,North,4,0.0,0.0,78,0.00,,SKC,0.00,VWS V13.01,2013-03-02 10:15:00,
2013-03-02 04:20:00,35.2,29.1,30.00,North,4,0.0,0.0,78,0.00,,SKC,0.00,VWS V13.01,2013-03-02 10:20:00,
2013-03-02 04:25:00,35.4,29.2,30.00,North,4,0.0,0.0,78,0.00,,SKC,0.00,VWS V13.01,2013-03-02 10:25:00,
2013-03-02 04:30:00,35.2,29.1,30.03,North,4,0.0,0.0,78,0.00,,SKC,0.00,VWS V13.01,2013-03-02 10:30:00,
2013-03-02 04:35:00,35.4,29.6,30.03,North,4,0.0,0.0,79,0.00,,SKC,0.00,VWS V13.01,2013-03-02 10:35:00,
2013-03-02 04:40:00,35.4,29.6,30.03,NNW,340,0.0,0.0,79,0.00,,SKC,0.00,VWS V13.01,2013-03-02 10:40:00,
2013-03-02 04:45:00,35.6,29.7,30.03,NNW,340,0.0,0.0,79,0.00,,SKC,0.00,VWS V13.01,2013-03-02 10:45:00,
2013-03-02 04:50:00,35.4,29.6,30.03,NNW,340,0.0,0.0,79,0.00,,SKC,0.00,VWS V13.01,2013-03-02 10:50:00,
2013-03-02 04:55:00,35.4,29.6,30.03,NNW,340,0.0,0.0,79,0.00,,SKC,0.00,VWS V13.01,2013-03-02 10:55:00,
2013-03-02 05:00:00,35.4,29.6,30.03,NNW,340,0.0,0.0,79,0.00,,SKC,0.00,VWS V13.01,2013-03-02 11:00:00,
2013-03-02 05:05:00,35.4,29.9,30.03,NNW,340,0.0,0.0,80,0.00,,SKC,0.00,VWS V13.01,2013-03-02 11:05:00,
2013-03-02 05:10:00,35.4,30.2,30.03,NNW,340,0.0,0.0,81,0.00,,SKC,0.00,VWS V13.01,2013-03-02 11:10:00,
2013-03-02 05:15:00,35.6,30.0,30.03,NNW,340,0.0,0.0,80,0.00,,SKC,0.00,VWS V13.01,2013-03-02 11:15:00,
2013-03-02 05:20:00,35.6,29.7,30.03,NNW,340,0.0,0.0,79,0.00,,SKC,0.00,VWS V13.01,2013-03-02 11:20:00,
2013-03-02 05:25:00,35.6,29.7,30.03,NNW,338,0.0,0.0,79,0.00,,SKC,0.00,VWS V13.01,2013-03-02 11:25:00,
2013-03-02 05:30:00,35.6,29.4,30.03,NNW,340,0.0,0.0,78,0.00,,SKC,0.00,VWS V13.01,2013-03-02 11:30:00,
2013-03-02 05:35:00,35.4,29.6,30.03,NNW,343,0.0,0.0,79,0.00,,SKC,0.00,VWS V13.01,2013-03-02 11:35:00,
2013-03-02 05:40:00,35.4,29.6,30.03,NNW,333,0.0,0.0,79,0.00,,SKC,0.00,VWS V13.01,2013-03-02 11:40:00,
2013-03-02 05:45:00,35.2,29.4,30.03,NNW,344,0.0,0.0,79,0.00,,SKC,0.00,VWS V13.01,2013-03-02 11:45:00,
2013-03-02 05:50:00,35.2,29.7,30.03,NNW,344,0.0,0.0,80,0.00,,SKC,0.00,VWS V13.01,2013-03-02 11:50:00,
2013-03-02 05:55:00,35.1,29.5,30.03,NNW,344,0.0,0.0,80,0.00,,SKC,0.00,VWS V13.01,2013-03-02 11:55:00,
2013-03-02 06:00:00,35.1,29.5,30.03,NNW,344,0.0,0.0,80,0.00,,SKC,0.00,VWS V13.01,2013-03-02 12:00:00,
2013-03-02 06:05:00,34.9,29.6,30.03,NNW,344,0.0,0.0,81,0.00,,SKC,0.00,VWS V13.01,2013-03-02 12:05:00,
2013-03-02 06:10:00,34.9,29.6,30.03,NNW,344,0.0,0.0,81,0.00,,SKC,0.00,VWS V13.01,2013-03-02 12:10:00,
2013-03-02 06:15:00,34.9,29.6,30.03,NNW,344,0.0,0.0,81,0.00,,SKC,0.00,VWS V13.01,2013-03-02 12:15:00,
2013-03-02 06:20:00,34.7,29.5,30.03,NNW,344,0.0,0.0,81,0.00,,SKC,0.00,VWS V13.01,2013-03-02 12:20:00,
2013-03-02 06:25:00,34.5,29.6,30.03,NNW,344,0.0,0.0,82,0.00,,SKC,0.00,VWS V13.01,2013-03-02 12:25:00,
2013-03-02 06:30:00,34.5,29.6,30.03,NNW,344,0.0,0.0,82,0.00,,SKC,0.00,VWS V13.01,2013-03-02 12:30:00,
2013-03-02 06:35:00,34.5,30.2,30.03,NNW,344,0.0,0.0,84,0.00,,SKC,0.00,VWS V13.01,2013-03-02 12:35:00,
2013-03-02 06:40:00,34.5,30.2,30.03,NNW,344,0.0,0.0,84,0.00,,SKC,0.00,VWS V13.01,2013-03-02 12:40:00,
2013-03-02 06:45:00,34.7,30.4,30.06,NNW,344,0.0,0.0,84,0.00,,SKC,0.00,VWS V13.01,2013-03-02 12:45:00,
2013-03-02 06:50:00,34.9,30.2,30.06,NNE,33,0.0,0.0,83,0.00,,SKC,0.00,VWS V13.01,2013-03-02 12:50:00,
2013-03-02 06:55:00,34.9,30.5,30.06,NNE,21,0.0,0.0,84,0.00,,SKC,0.00,VWS V13.01,2013-03-02 12:55:00,
2013-03-02 07:00:00,35.2,30.9,30.06,NNW,336,0.0,0.0,84,0.00,,SKC,0.00,VWS V13.01,2013-03-02 13:00:00,
2013-03-02 07:05:00,35.4,30.8,30.06,NNW,327,0.0,0.0,83,0.00,,SKC,0.00,VWS V13.01,2013-03-02 13:05:00,
2013-03-02 07:10:00,35.6,30.0,30.06,North,354,0.0,0.0,80,0.00,,SKC,0.00,VWS V13.01,2013-03-02 13:10:00,
2013-03-02 07:15:00,35.8,30.2,30.06,North,350,0.0,0.0,80,0.00,,SKC,0.00,VWS V13.01,2013-03-02 13:15:00,
2013-03-02 07:20:00,36.1,30.3,30.06,NW,315,0.0,0.0,79,0.00,,SKC,0.00,VWS V13.01,2013-03-02 13:20:00,
2013-03-02 07:25:00,36.7,30.5,30.06,NW,326,0.0,0.0,78,0.00,,SKC,0.00,VWS V13.01,2013-03-02 13:25:00,
2013-03-02 07:30:00,37.2,30.4,30.06,NW,313,0.0,2.2,76,0.00,,SKC,0.00,VWS V13.01,2013-03-02 13:30:00,
2013-03-02 07:35:00,37.6,30.1,30.06,NNW,334,0.0,2.7,74,0.00,,SKC,0.00,VWS V13.01,2013-03-02 13:35:00,
2013-03-02 07:40:00,38.5,29.6,30.06,NW,318,0.0,0.0,70,0.00,,SKC,0.00,VWS V13.01,2013-03-02 13:40:00,
2013-03-02 07:45:00,39.0,29.4,30.06,NNE,18,2.7,3.1,68,0.00,,SKC,0.00,VWS V13.01,2013-03-02 13:45:00,
2013-03-02 07:50:00,39.7,29.7,30.06,North,352,0.0,5.8,67,0.00,,SKC,0.00,VWS V13.01,2013-03-02 13:50:00,
2013-03-02 07:55:00,40.6,30.5,30.06,NNW,340,0.0,3.6,67,0.00,,SKC,0.00,VWS V13.01,2013-03-02 13:55:00,
2013-03-02 08:00:00,41.2,30.3,30.06,NNW,333,0.0,0.0,65,0.00,,SKC,0.00,VWS V13.01,2013-03-02 14:00:00,
2013-03-02 08:05:00,41.7,30.8,30.06,NW,308,3.6,3.6,65,0.00,,SKC,0.00,VWS V13.01,2013-03-02 14:05:00,
2013-03-02 08:10:00,42.4,31.5,30.06,NNW,330,6.3,6.3,65,0.00,,SKC,0.00,VWS V13.01,2013-03-02 14:10:00,
2013-03-02 08:15:00,43.2,31.8,30.09,NNW,329,0.0,4.0,64,0.00,,SKC,0.00,VWS V13.01,2013-03-02 14:15:00,
2013-03-02 08:20:00,43.7,32.3,30.09,NNW,339,2.7,2.7,64,0.00,,SKC,0.00,VWS V13.01,2013-03-02 14:20:00,
2013-03-02 08:25:00,44.1,32.7,30.09,NNW,344,2.7,2.7,64,0.00,,SKC,0.00,VWS V13.01,2013-03-02 14:25:00,
2013-03-02 08:30:00,44.6,33.2,30.09,NE,40,2.2,3.6,64,0.00,,SKC,0.00,VWS V13.01,2013-03-02 14:30:00,
2013-03-02 08:35:00,44.6,33.2,30.09,NNE,24,5.8,5.8,64,0.00,,SKC,0.00,VWS V13.01,2013-03-02 14:35:00,
2013-03-02 08:40:00,44.8,33.4,30.09,North,7,5.4,5.4,64,0.00,,SKC,0.00,VWS V13.01,2013-03-02 14:40:00,
2013-03-02 08:45:00,45.1,33.7,30.09,NW,322,0.0,3.6,64,0.00,,SKC,0.00,VWS V13.01,2013-03-02 14:45:00,
2013-03-02 08:50:00,46.0,34.6,30.09,ENE,64,3.1,4.9,64,0.00,,SKC,0.00,VWS V13.01,2013-03-02 14:50:00,
2013-03-02 08:55:00,46.2,34.7,30.09,ENE,75,2.2,6.3,64,0.00,,SKC,0.00,VWS V13.01,2013-03-02 14:55:00,
2013-03-02 09:00:00,46.4,34.5,30.06,NE,44,0.0,7.6,63,0.00,,SKC,0.00,VWS V13.01,2013-03-02 15:00:00,
2013-03-02 09:05:00,46.8,34.8,30.06,North,351,0.0,2.7,63,0.00,,SKC,0.00,VWS V13.01,2013-03-02 15:05:00,
2013-03-02 09:10:00,47.1,35.2,30.06,ENE,60,6.3,8.1,63,0.00,,SKC,0.00,VWS V13.01,2013-03-02 15:10:00,
2013-03-02 09:15:00,47.1,35.2,30.06,ENE,57,2.2,2.7,63,0.00,,SKC,0.00,VWS V13.01,2013-03-02 15:15:00,
2013-03-02 09:20:00,47.8,35.9,30.06,NE,38,6.3,8.1,63,0.00,,SKC,0.00,VWS V13.01,2013-03-02 15:20:00,
2013-03-02 09:25:00,47.8,35.9,30.06,ENE,61,7.6,7.6,63,0.00,,SKC,0.00,VWS V13.01,2013-03-02 15:25:00,
2013-03-02 09:30:00,48.0,36.0,30.06,North,354,6.3,10.5,63,0.00,,SKC,0.00,VWS V13.01,2013-03-02 15:30:00,
2013-03-02 09:35:00,48.6,36.5,30.06,North,7,3.1,4.9,63,0.00,,SKC,0.00,VWS V13.01,2013-03-02 15:35:00,
2013-03-02 09:40:00,48.9,36.9,30.06,ESE,108,4.0,5.4,63,0.00,,SKC,0.00,VWS V13.01,2013-03-02 15:40:00,
2013-03-02 09:45:00,49.3,37.2,30.06,NNE,29,3.1,3.1,63,0.00,,SKC,0.00,VWS V13.01,2013-03-02 15:45:00,
2013-03-02 09:49:00,49.6,37.6,30.06,NE,38,3.1,5.4,63,0.00,,SKC,0.00,VWS V13.01,2013-03-02 15:49:00,
2013-03-02 09:54:00,48.9,36.9,30.06,ENE,70,3.1,4.0,63,0.00,,SKC,0.00,VWS V13.01,2013-03-02 15:54:00,
2013-03-02 09:59:00,49.1,37.1,30.06,NE,46,8.3,8.3,63,0.00,,SKC,0.00,VWS V13.01,2013-03-02 15:59:00,
2013-03-02 10:04:00,49.5,37.4,30.06,NE,38,7.6,7.6,63,0.00,,SKC,0.00,VWS V13.01,2013-03-02 16:04:00,
2013-03-02 10:09:00,49.6,37.6,30.06,NNW,341,2.2,4.0,63,0.00,,SKC,0.00,VWS V13.01,2013-03-02 16:09:00,
2013-03-02 10:14:00,50.5,38.4,30.06,NE,53,6.3,7.6,63,0.00,,SKC,0.00,VWS V13.01,2013-03-02 16:14:00,
2013-03-02 10:19:00,51.3,39.1,30.06,NE,46,5.4,8.1,63,0.00,,SKC,0.00,VWS V13.01,2013-03-02 16:19:00,
2013-03-02 10:24:00,52.0,39.4,30.06,NNW,333,8.1,8.3,62,0.00,,SKC,0.00,VWS V13.01,2013-03-02 16:24:00,
2013-03-02 10:29:00,51.4,39.3,30.06,NW,315,3.1,4.9,63,0.00,,SKC,0.00,VWS V13.01,2013-03-02 16:29:00,
2013-03-02 10:34:00,52.2,39.5,30.06,North,1,0.0,5.4,62,0.00,,SKC,0.00,VWS V13.01,2013-03-02 16:34:00,
2013-03-02 10:39:00,52.2,39.5,30.06,WNW,294,8.1,8.1,62,0.00,,SKC,0.00,VWS V13.01,2013-03-02 16:39:00,
2013-03-02 10:44:00,52.5,39.9,30.03,NNW,331,5.8,5.8,62,0.00,,SKC,0.00,VWS V13.01,2013-03-02 16:44:00,
2013-03-02 10:49:00,52.0,39.4,30.03,NNW,332,5.4,5.8,62,0.00,,SKC,0.00,VWS V13.01,2013-03-02 16:49:00,
2013-03-02 10:54:00,52.0,39.4,30.03,North,359,2.7,5.8,62,0.00,,SKC,0.00,VWS V13.01,2013-03-02 16:54:00,
2013-03-02 10:59:00,52.7,40.1,30.03,NW,322,7.2,7.2,62,0.00,,SKC,0.00,VWS V13.01,2013-03-02 16:59:00,
2013-03-02 11:04:00,52.9,40.2,30.03,NE,44,4.9,4.9,62,0.00,,SKC,0.00,VWS V13.01,2013-03-02 17:04:00,
2013-03-02 11:09:00,52.7,40.1,30.03,North,355,5.4,8.1,62,0.00,,SKC,0.00,VWS V13.01,2013-03-02 17:09:00,
2013-03-02 11:14:00,52.9,40.2,30.03,WSW,241,4.0,11.0,62,0.00,,SKC,0.00,VWS V13.01,2013-03-02 17:14:00,
2013-03-02 11:19:00,54.3,41.6,30.03,NNE,13,4.9,4.9,62,0.00,,SKC,0.00,VWS V13.01,2013-03-02 17:19:00,
2013-03-02 11:24:00,53.6,40.9,30.03,West,280,0.0,3.6,62,0.00,,SKC,0.00,VWS V13.01,2013-03-02 17:24:00,
2013-03-02 11:29:00,52.3,39.7,30.03,NNW,329,10.5,12.3,62,0.00,,SKC,0.00,VWS V13.01,2013-03-02 17:29:00,
2013-03-02 11:34:00,52.5,39.9,30.03,NNE,19,4.9,6.3,62,0.00,,SKC,0.00,VWS V13.01,2013-03-02 17:34:00,
2013-03-02 11:39:00,52.0,39.4,30.03,NNE,12,4.0,6.3,62,0.00,,SKC,0.00,VWS V13.01,2013-03-02 17:39:00,
2013-03-02 11:44:00,52.0,39.4,30.03,NNW,342,8.1,8.1,62,0.00,,SKC,0.00,VWS V13.01,2013-03-02 17:44:00,
2013-03-02 11:49:00,53.4,40.7,30.03,WNW,290,4.5,8.3,62,0.00,,SKC,0.00,VWS V13.01,2013-03-02 17:49:00,
2013-03-02 11:54:00,53.8,41.1,30.03,North,358,11.0,11.0,62,0.00,,SKC,0.00,VWS V13.01,2013-03-02 17:54:00,
2013-03-02 11:59:00,53.6,40.9,30.03,NNW,334,14.1,14.1,62,0.00,,SKC,0.00,VWS V13.01,2013-03-02 17:59:00,
2013-03-02 12:04:00,53.4,40.7,30.03,NNW,345,6.3,6.3,62,0.00,,SKC,0.00,VWS V13.01,2013-03-02 18:04:00,
2013-03-02 12:09:00,52.2,39.5,30.03,NNW,335,9.6,13.2,62,0.00,,SKC,0.00,VWS V13.01,2013-03-02 18:09:00,
2013-03-02 12:14:00,51.8,39.2,30.03,NW,326,5.4,5.4,62,0.00,,SKC,0.00,VWS V13.01,2013-03-02 18:14:00,
2013-03-02 12:19:00,50.9,38.8,30.03,NE,46,8.3,8.3,63,0.00,,SKC,0.00,VWS V13.01,2013-03-02 18:19:00,
2013-03-02 12:24:00,51.6,39.5,30.03,West,270,3.6,5.4,63,0.00,,SKC,0.00,VWS V13.01,2013-03-02 18:24:00,
2013-03-02 12:29:00,52.3,39.7,30.03,ENE,60,5.4,8.3,62,0.00,,SKC,0.00,VWS V13.01,2013-03-02 18:29:00,
2013-03-02 12:34:00,52.0,39.4,30.00,NW,326,8.7,13.2,62,0.00,,SKC,0.00,VWS V13.01,2013-03-02 18:34:00,
2013-03-02 12:39:00,52.5,39.9,30.00,NE,49,5.4,8.1,62,0.00,,SKC,0.00,VWS V13.01,2013-03-02 18:39:00,
2013-03-02 12:44:00,51.8,39.2,30.00,WNW,295,8.7,8.7,62,0.00,,SKC,0.00,VWS V13.01,2013-03-02 18:44:00,
2013-03-02 12:49:00,51.1,38.9,30.00,WNW,295,5.8,11.0,63,0.00,,SKC,0.00,VWS V13.01,2013-03-02 18:49:00,
2013-03-02 12:54:00,51.6,39.5,30.00,NNW,347,11.0,11.0,63,0.00,,SKC,0.00,VWS V13.01,2013-03-02 18:54:00,
2013-03-02 12:59:00,51.3,39.1,30.00,NNE,21,11.9,11.9,63,0.00,,SKC,0.00,VWS V13.01,2013-03-02 18:59:00,
2013-03-02 13:04:00,50.5,38.4,30.00,NNW,338,8.3,8.3,63,0.00,,SKC,0.00,VWS V13.01,2013-03-02 19:04:00,
2013-03-02 13:09:00,51.3,39.1,30.00,SW,230,5.8,5.8,63,0.00,,SKC,0.00,VWS V13.01,2013-03-02 19:09:00,
2013-03-02 13:14:00,51.8,39.2,30.00,NW,324,10.1,10.1,62,0.00,,SKC,0.00,VWS V13.01,2013-03-02 19:14:00,
2013-03-02 13:19:00,51.6,39.5,30.00,NNW,331,6.3,6.3,63,0.00,,SKC,0.00,VWS V13.01,2013-03-02 19:19:00,
2013-03-02 13:24:00,51.3,39.1,30.00,NNW,336,10.5,10.5,63,0.00,,SKC,0.00,VWS V13.01,2013-03-02 19:24:00,
2013-03-02 13:29:00,50.2,38.1,30.00,NNE,15,7.2,7.2,63,0.00,,SKC,0.00,VWS V13.01,2013-03-02 19:29:00,
2013-03-02 13:34:00,49.6,37.6,30.00,West,280,8.7,13.2,63,0.00,,SKC,0.00,VWS V13.01,2013-03-02 19:34:00,
2013-03-02 13:39:00,49.3,37.2,30.00,WNW,299,5.4,5.4,63,0.00,,SKC,0.00,VWS V13.01,2013-03-02 19:39:00,
2013-03-02 13:44:00,49.5,37.4,30.00,NNW,338,4.0,4.0,63,0.00,,SKC,0.00,VWS V13.01,2013-03-02 19:44:00,
2013-03-02 13:49:00,49.6,37.6,30.00,NE,42,3.1,3.6,63,0.00,,SKC,0.00,VWS V13.01,2013-03-02 19:49:00,
2013-03-02 13:54:00,50.0,37.9,30.00,NE,36,6.7,10.1,63,0.00,,SKC,0.00,VWS V13.01,2013-03-02 19:54:00,
2013-03-02 13:59:00,50.4,38.3,30.00,NW,311,4.0,8.7,63,0.00,,SKC,0.00,VWS V13.01,2013-03-02 19:59:00,
2013-03-02 14:04:00,50.2,38.1,30.00,North,8,4.9,8.3,63,0.00,,SKC,0.00,VWS V13.01,2013-03-02 20:04:00,
2013-03-02 14:09:00,49.8,37.8,30.00,NNW,343,7.6,7.6,63,0.00,,SKC,0.00,VWS V13.01,2013-03-02 20:09:00,
2013-03-02 14:14:00,49.6,37.6,30.00,North,360,2.7,2.7,63,0.00,,SKC,0.00,VWS V13.01,2013-03-02 20:14:00,
2013-03-02 14:19:00,48.7,36.7,30.00,NNE,13,5.8,6.3,63,0.00,,SKC,0.00,VWS V13.01,2013-03-02 20:19:00,
2013-03-02 14:24:00,48.2,36.2,30.00,NNE,31,5.4,6.3,63,0.00,,SKC,0.00,VWS V13.01,2013-03-02 20:24:00,
2013-03-02 14:29:00,48.6,36.5,30.00,NNW,335,10.1,11.4,63,0.00,,SKC,0.00,VWS V13.01,2013-03-02 20:29:00,
2013-03-02 14:34:00,48.9,36.9,30.00,NNW,331,8.1,8.1,63,0.00,,SKC,0.00,VWS V13.01,2013-03-02 20:34:00,
2013-03-02 14:39:00,49.1,37.1,30.00,NE,36,4.9,8.3,63,0.00,,SKC,0.00,VWS V13.01,2013-03-02 20:39:00,
2013-03-02 14:44:00,49.1,37.1,30.00,North,352,9.6,9.6,63,0.00,,SKC,0.00,VWS V13.01,2013-03-02 20:44:00,
2013-03-02 14:49:00,49.3,37.2,30.00,North,1,8.1,9.6,63,0.00,,SKC,0.00,VWS V13.01,2013-03-02 20:49:00,
2013-03-02 14:54:00,48.9,36.9,30.00,West,280,3.1,8.7,63,0.00,,SKC,0.00,VWS V13.01,2013-03-02 20:54:00,
2013-03-02 14:59:00,48.9,36.9,30.00,North,9,5.4,5.4,63,0.00,,SKC,0.00,VWS V13.01,2013-03-02 20:59:00,
2013-03-02 15:04:00,48.6,36.5,30.00,NW,324,8.1,8.1,63,0.00,,SKC,0.00,VWS V13.01,2013-03-02 21:04:00,
2013-03-02 15:09:00,48.2,36.2,30.00,NNE,16,5.4,5.8,63,0.00,,SKC,0.00,VWS V13.01,2013-03-02 21:09:00,
2013-03-02 15:14:00,48.6,36.5,30.00,NW,325,3.1,3.6,63,0.00,,SKC,0.00,VWS V13.01,2013-03-02 21:14:00,
2013-03-02 15:19:00,48.7,36.7,29.97,North,354,5.4,8.1,63,0.00,,SKC,0.00,VWS V13.01,2013-03-02 21:19:00,
2013-03-02 15:24:00,48.6,36.5,29.97,NW,324,3.1,8.1,63,0.00,,SKC,0.00,VWS V13.01,2013-03-02 21:24:00,
2013-03-02 15:29:00,47.8,35.9,29.97,NNE,14,7.2,8.3,63,0.00,,SKC,0.00,VWS V13.01,2013-03-02 21:29:00,
2013-03-02 15:34:00,47.8,35.9,30.00,North,9,8.7,8.7,63,0.00,,SKC,0.00,VWS V13.01,2013-03-02 21:34:00,
2013-03-02 15:39:00,47.5,35.5,30.00,North,1,5.4,10.1,63,0.00,,SKC,0.00,VWS V13.01,2013-03-02 21:39:00,
2013-03-02 15:44:00,47.1,35.2,30.00,NE,44,8.1,8.1,63,0.00,,SKC,0.00,VWS V13.01,2013-03-02 21:44:00,
2013-03-02 15:49:00,47.1,35.2,30.00,NNE,27,5.8,15.0,63,0.00,,SKC,0.00,VWS V13.01,2013-03-02 21:49:00,
2013-03-02 15:54:00,46.8,34.8,30.00,ENE,57,4.0,8.3,63,0.00,,SKC,0.00,VWS V13.01,2013-03-02 21:54:00,
2013-03-02 15:59:00,46.6,34.7,30.00,West,263,14.1,14.1,63,0.00,,SKC,0.00,VWS V13.01,2013-03-02 21:59:00,
2013-03-02 16:04:00,46.6,34.7,30.00,WNW,286,10.5,17.0,63,0.00,,SKC,0.00,VWS V13.01,2013-03-02 22:04:00,
2013-03-02 16:09:00,46.4,34.5,30.00,NW,317,6.3,8.3,63,0.00,,SKC,0.00,VWS V13.01,2013-03-02 22:09:00,
2013-03-02 16:14:00,46.2,34.7,30.00,North,2,8.3,10.1,64,0.00,,SKC,0.00,VWS V13.01,2013-03-02 22:14:00,
2013-03-02 16:19:00,46.2,34.7,30.00,NE,39,0.0,3.1,64,0.00,,SKC,0.00,VWS V13.01,2013-03-02 22:19:00,
2013-03-02 16:24:00,46.2,34.7,30.00,NNW,327,8.7,8.7,64,0.00,,SKC,0.00,VWS V13.01,2013-03-02 22:24:00,
2013-03-02 16:29:00,46.0,34.6,30.00,NNW,338,8.7,10.1,64,0.00,,SKC,0.00,VWS V13.01,2013-03-02 22:29:00,
2013-03-02 16:34:00,46.0,34.6,30.00,NNW,328,9.6,9.6,64,0.00,,SKC,0.00,VWS V13.01,2013-03-02 22:34:00,
2013-03-02 16:39:00,46.0,34.6,30.00,NW,310,6.7,11.0,64,0.00,,SKC,0.00,VWS V13.01,2013-03-02 22:39:00,
2013-03-02 16:44:00,46.0,34.6,30.00,NNW,344,3.1,4.0,64,0.00,,SKC,0.00,VWS V13.01,2013-03-02 22:44:00,
2013-03-02 16:49:00,45.9,34.4,30.00,NNW,328,6.3,7.6,64,0.00,,SKC,0.00,VWS V13.01,2013-03-02 22:49:00,
2013-03-02 16:54:00,45.7,34.2,30.00,NW,321,3.6,10.5,64,0.00,,SKC,0.00,VWS V13.01,2013-03-02 22:54:00,
2013-03-02 16:59:00,45.3,33.9,30.00,NNE,19,5.8,8.1,64,0.00,,SKC,0.00,VWS V13.01,2013-03-02 22:59:00,
2013-03-02 17:04:00,45.0,33.5,30.00,NNW,336,8.3,9.6,64,0.00,,SKC,0.00,VWS V13.01,2013-03-02 23:04:00,
2013-03-02 17:09:00,45.0,33.5,30.00,NNE,15,6.3,10.1,64,0.00,,SKC,0.00,VWS V13.01,2013-03-02 23:09:00,
2013-03-02 17:14:00,44.6,33.2,30.00,NNE,19,6.3,8.3,64,0.00,,SKC,0.00,VWS V13.01,2013-03-02 23:14:00,
2013-03-02 17:19:00,44.4,33.0,30.00,NW,318,5.8,6.7,64,0.00,,SKC,0.00,VWS V13.01,2013-03-02 23:19:00,
2013-03-02 17:24:00,44.2,32.8,30.00,NW,309,5.4,5.8,64,0.00,,SKC,0.00,VWS V13.01,2013-03-02 23:24:00,
2013-03-02 17:29:00,44.2,32.8,30.00,NE,53,5.8,8.3,64,0.00,,SKC,0.00,VWS V13.01,2013-03-02 23:29:00,
2013-03-02 17:34:00,44.1,32.7,30.03,North,5,8.3,8.3,64,0.00,,SKC,0.00,VWS V13.01,2013-03-02 23:34:00,
2013-03-02 17:39:00,44.1,32.7,30.03,North,357,5.4,5.4,64,0.00,,SKC,0.00,VWS V13.01,2013-03-02 23:39:00,
2013-03-02 17:44:00,43.7,32.3,30.03,NE,38,5.8,8.3,64,0.00,,SKC,0.00,VWS V13.01,2013-03-02 23:44:00,
2013-03-02 17:49:00,43.7,32.3,30.03,ENE,74,4.9,5.4,64,0.00,,SKC,0.00,VWS V13.01,2013-03-02 23:49:00,
2013-03-02 17:54:00,43.5,32.2,30.03,NNE,14,2.7,8.3,64,0.00,,SKC,0.00,VWS V13.01,2013-03-02 23:54:00,
2013-03-02 17:59:00,43.2,31.8,30.03,NNE,20,6.3,7.6,64,0.00,,SKC,0.00,VWS V13.01,2013-03-02 23:59:00,
2013-03-02 18:04:00,43.2,31.8,30.03,NNE,24,3.6,9.6,64,0.00,,SKC,0.00,VWS V13.01,2013-03-03 00:04:00,
2013-03-02 18:09:00,43.0,31.6,30.03,ENE,62,6.7,9.6,64,0.00,,SKC,0.00,VWS V13.01,2013-03-03 00:09:00,
2013-03-02 18:14:00,43.0,31.6,30.03,North,3,4.0,4.0,64,0.00,,SKC,0.00,VWS V13.01,2013-03-03 00:14:00,
2013-03-02 18:19:00,43.0,31.6,30.06,NNE,28,4.0,6.7,64,0.00,,SKC,0.00,VWS V13.01,2013-03-03 00:19:00,
2013-03-02 18:24:00,42.8,31.5,30.06,WSW,239,7.6,7.6,64,0.00,,SKC,0.00,VWS V13.01,2013-03-03 00:24:00,
2013-03-02 18:29:00,42.6,31.7,30.06,WNW,302,3.6,4.0,65,0.00,,SKC,0.00,VWS V13.01,2013-03-03 00:29:00,
2013-03-02 18:34:00,42.4,31.5,30.06,North,11,5.8,8.7,65,0.00,,SKC,0.00,VWS V13.01,2013-03-03 00:34:00,
2013-03-02 18:39:00,42.4,31.5,30.06,NNE,25,8.3,8.3,65,0.00,,SKC,0.00,VWS V13.01,2013-03-03 00:39:00,
2013-03-02 18:44:00,42.4,31.5,30.06,NE,50,4.0,8.7,65,0.00,,SKC,0.00,VWS V13.01,2013-03-03 00:44:00,
2013-03-02 18:49:00,42.4,31.5,30.06,ENE,66,3.6,5.4,65,0.00,,SKC,0.00,VWS V13.01,2013-03-03 00:49:00,
2013-03-02 18:54:00,42.3,31.4,30.06,NNE,16,6.3,8.1,65,0.00,,SKC,0.00,VWS V13.01,2013-03-03 00:54:00,
2013-03-02 18:59:00,42.1,31.2,30.06,North,7,6.3,6.3,65,0.00,,SKC,0.00,VWS V13.01,2013-03-03 00:59:00,
2013-03-02 19:04:00,41.7,30.8,30.06,NNW,343,5.4,7.6,65,0.00,,SKC,0.00,VWS V13.01,2013-03-03 01:04:00,
2013-03-02 19:09:00,41.7,30.8,30.06,North,9,6.3,9.6,65,0.00,,SKC,0.00,VWS V13.01,2013-03-03 01:09:00,
2013-03-02 19:14:00,41.7,30.8,30.06,North,355,8.7,11.9,65,0.00,,SKC,0.00,VWS V13.01,2013-03-03 01:14:00,
2013-03-02 19:19:00,41.5,30.7,30.06,NNW,341,5.4,7.6,65,0.00,,SKC,0.00,VWS V13.01,2013-03-03 01:19:00,
2013-03-02 19:23:00,41.4,30.5,30.06,North,355,8.1,8.1,65,0.00,,SKC,0.00,VWS V13.01,2013-03-03 01:23:00,
2013-03-02 19:28:00,41.4,30.5,30.06,NNE,26,3.1,6.3,65,0.00,,SKC,0.00,VWS V13.01,2013-03-03 01:28:00,
2013-03-02 19:33:00,41.4,30.5,30.06,NNE,16,10.5,10.5,65,0.00,,SKC,0.00,VWS V13.01,2013-03-03 01:33:00,
2013-03-02 19:38:00,41.4,30.5,30.06,NNW,347,3.1,5.4,65,0.00,,SKC,0.00,VWS V13.01,2013-03-03 01:38:00,
2013-03-02 19:43:00,41.2,30.3,30.06,NNE,23,4.0,4.5,65,0.00,,SKC,0.00,VWS V13.01,2013-03-03 01:43:00,
2013-03-02 19:48:00,41.2,30.3,30.09,NW,312,4.0,5.8,65,0.00,,SKC,0.00,VWS V13.01,2013-03-03 01:48:00,
2013-03-02 19:53:00,41.2,30.3,30.09,North,11,2.7,8.1,65,0.00,,SKC,0.00,VWS V13.01,2013-03-03 01:53:00,
2013-03-02 19:58:00,41.2,30.3,30.09,NW,316,3.1,3.6,65,0.00,,SKC,0.00,VWS V13.01,2013-03-03 01:58:00,
2013-03-02 20:03:00,41.4,30.5,30.09,North,359,3.6,4.0,65,0.00,,SKC,0.00,VWS V13.01,2013-03-03 02:03:00,
2013-03-02 20:08:00,41.2,30.3,30.09,North,351,6.3,8.3,65,0.00,,SKC,0.00,VWS V13.01,2013-03-03 02:08:00,
2013-03-02 20:13:00,41.0,30.1,30.09,NNW,348,8.1,8.1,65,0.00,,SKC,0.00,VWS V13.01,2013-03-03 02:13:00,
2013-03-02 20:18:00,41.2,30.3,30.09,North,11,2.2,2.2,65,0.00,,SKC,0.00,VWS V13.01,2013-03-03 02:18:00,
2013-03-02 20:23:00,41.0,30.1,30.09,ENE,57,0.0,0.0,65,0.00,,SKC,0.00,VWS V13.01,2013-03-03 02:23:00,
2013-03-02 20:28:00,41.0,30.1,30.09,NNE,31,0.0,5.4,65,0.00,,SKC,0.00,VWS V13.01,2013-03-03 02:28:00,
2013-03-02 20:33:00,41.0,30.1,30.09,NNW,329,7.6,7.6,65,0.00,,SKC,0.00,VWS V13.01,2013-03-03 02:33:00,
2013-03-02 20:38:00,41.0,30.1,30.09,NNE,12,6.3,6.3,65,0.00,,SKC,0.00,VWS V13.01,2013-03-03 02:38:00,
2013-03-02 20:43:00,41.0,30.1,30.09,North,358,5.4,5.4,65,0.00,,SKC,0.00,VWS V13.01,2013-03-03 02:43:00,
2013-03-02 20:48:00,41.0,30.1,30.09,NW,326,3.6,8.1,65,0.00,,SKC,0.00,VWS V13.01,2013-03-03 02:48:00,
2013-03-02 20:53:00,41.0,30.1,30.09,NW,308,0.0,2.2,65,0.00,,SKC,0.00,VWS V13.01,2013-03-03 02:53:00,
2013-03-02 20:58:00,40.8,30.0,30.09,NNE,19,10.5,10.5,65,0.00,,SKC,0.00,VWS V13.01,2013-03-03 02:58:00,
2013-03-02 21:03:00,40.8,30.0,30.09,NE,53,2.2,4.0,65,0.00,,SKC,0.00,VWS V13.01,2013-03-03 03:03:00,
2013-03-02 21:08:00,40.8,30.0,30.09,NNE,25,2.2,4.9,65,0.00,,SKC,0.00,VWS V13.01,2013-03-03 03:08:00,
2013-03-02 21:13:00,40.6,29.8,30.09,West,260,5.4,8.1,65,0.00,,SKC,0.00,VWS V13.01,2013-03-03 03:13:00,
2013-03-02 21:18:00,40.6,29.8,30.09,North,3,10.5,10.5,65,0.00,,SKC,0.00,VWS V13.01,2013-03-03 03:18:00,
2013-03-02 21:23:00,40.5,29.6,30.09,NNE,24,5.8,6.3,65,0.00,,SKC,0.00,VWS V13.01,2013-03-03 03:23:00,
2013-03-02 21:28:00,40.5,29.6,30.09,NNW,345,5.4,5.4,65,0.00,,SKC,0.00,VWS V13.01,2013-03-03 03:28:00,
2013-03-02 21:33:00,40.5,29.6,30.12,NNE,20,8.1,8.1,65,0.00,,SKC,0.00,VWS V13.01,2013-03-03 03:33:00,
2013-03-02 21:38:00,40.5,29.6,30.12,North,356,5.4,5.4,65,0.00,,SKC,0.00,VWS V13.01,2013-03-03 03:38:00,
2013-03-02 21:43:00,40.5,29.6,30.12,North,359,3.6,3.6,65,0.00,,SKC,0.00,VWS V13.01,2013-03-03 03:43:00,
2013-03-02 21:48:00,40.3,29.5,30.12,NNW,336,5.4,5.4,65,0.00,,SKC,0.00,VWS V13.01,2013-03-03 03:48:00,
2013-03-02 21:53:00,40.1,29.3,30.12,NNW,344,4.9,4.9,65,0.00,,SKC,0.00,VWS V13.01,2013-03-03 03:53:00,
2013-03-02 21:58:00,40.3,29.5,30.12,NNE,25,3.1,3.1,65,0.00,,SKC,0.00,VWS V13.01,2013-03-03 03:58:00,
2013-03-02 22:03:00,40.5,29.6,30.12,NE,36,4.0,6.3,65,0.00,,SKC,0.00,VWS V13.01,2013-03-03 04:03:00,
2013-03-02 22:08:00,40.5,29.6,30.12,NNW,335,7.6,8.1,65,0.00,,SKC,0.00,VWS V13.01,2013-03-03 04:08:00,
2013-03-02 22:13:00,40.3,29.5,30.12,NNW,347,6.7,10.5,65,0.00,,SKC,0.00,VWS V13.01,2013-03-03 04:13:00,
2013-03-02 22:18:00,40.3,29.5,30.12,NNE,25,2.2,2.2,65,0.00,,SKC,0.00,VWS V13.01,2013-03-03 04:18:00,
2013-03-02 22:23:00,40.3,29.5,30.12,NW,321,6.3,6.3,65,0.00,,SKC,0.00,VWS V13.01,2013-03-03 04:23:00,
2013-03-02 22:28:00,40.1,29.3,30.12,NNE,20,5.8,5.8,65,0.00,,SKC,0.00,VWS V13.01,2013-03-03 04:28:00,
2013-03-02 22:33:00,39.9,29.1,30.09,NE,34,4.9,8.1,65,0.00,,SKC,0.00,VWS V13.01,2013-03-03 04:33:00,
2013-03-02 22:38:00,39.4,28.6,30.09,ENE,60,2.7,6.3,65,0.00,,SKC,0.00,VWS V13.01,2013-03-03 04:38:00,
2013-03-02 22:43:00,39.2,28.4,30.09,ENE,77,6.7,10.1,65,0.00,,SKC,0.00,VWS V13.01,2013-03-03 04:43:00,
2013-03-02 22:48:00,39.0,28.3,30.09,North,2,3.1,3.1,65,0.00,,SKC,0.00,VWS V13.01,2013-03-03 04:48:00,
2013-03-02 22:53:00,38.8,28.1,30.09,NW,323,5.4,8.3,65,0.00,,SKC,0.00,VWS V13.01,2013-03-03 04:53:00,
2013-03-02 22:58:00,38.7,27.9,30.09,North,5,0.0,4.0,65,0.00,,SKC,0.00,VWS V13.01,2013-03-03 04:58:00,
2013-03-02 23:00:00,38.7,27.9,30.09,North,7,6.3,6.3,65,0.00,,SKC,0.00,VWS V13.01,2013-03-03 05:00:00,
2013-03-02 23:05:00,38.5,27.8,30.09,North,353,0.0,4.0,65,0.00,,SKC,0.00,VWS V13.01,2013-03-03 05:05:00,
2013-03-02 23:10:00,38.1,27.4,30.09,North,3,0.0,3.1,65,0.00,,SKC,0.00,VWS V13.01,2013-03-03 05:10:00,
2013-03-02 23:15:00,37.9,27.2,30.09,North,2,2.2,5.4,65,0.00,,SKC,0.00,VWS V13.01,2013-03-03 05:15:00,
2013-03-02 23:20:00,37.9,27.2,30.09,North,353,6.3,12.3,65,0.00,,SKC,0.00,VWS V13.01,2013-03-03 05:20:00,
2013-03-02 23:25:00,37.8,27.1,30.09,East,85,0.0,5.8,65,0.00,,SKC,0.00,VWS V13.01,2013-03-03 05:25:00,
2013-03-02 23:30:00,37.6,26.9,30.09,NNE,24,0.0,5.4,65,0.00,,SKC,0.00,VWS V13.01,2013-03-03 05:30:00,
2013-03-02 23:35:00,37.6,26.9,30.09,NNE,18,4.0,7.2,65,0.00,,SKC,0.00,VWS V13.01,2013-03-03 05:35:00,
2013-03-02 23:40:00,37.4,26.7,30.09,NNW,347,4.0,4.0,65,0.00,,SKC,0.00,VWS V13.01,2013-03-03 05:40:00,
2013-03-02 23:45:00,37.4,26.7,30.09,NW,310,3.1,5.4,65,0.00,,SKC,0.00,VWS V13.01,2013-03-03 05:45:00,
2013-03-02 23:50:00,37.2,26.9,30.09,NNE,14,3.6,4.0,66,0.00,,SKC,0.00,VWS V13.01,2013-03-03 05:50:00,
2013-03-02 23:55:00,37.0,26.8,30.09,NNE,29,4.0,4.0,66,0.00,,SKC,0.00,VWS V13.01,2013-03-03 05:55:00,